Location: Krasnoyarskiy Pitomnik
(51.1333°N, 71.6167°E)
Time: 09:21:27
(UTC+00:00)

NOSS 3-1 (A) - Pass Details

Date: 22 October 2021
Orbit: 721 x 1491 km, 63.4° (Epoch: 22 November)

Event Time Altitude Azimuth Distance (km) Brightness Sun altitude
Rises 15:44:17 0° 240° (WSW) 3,270 6.6 -34.1°
Reaches altitude 10° 15:46:35 10° 245° (WSW) 2,412 5.9 -34.4°
Enters shadow 15:50:18 42° 270° (W) 1,252 4.3 -34.9°
